Home > Weather > Luckenwalde > Past weeks

Flag for Germany Weather for the Past 2 Weeks in Luckenwalde, Brandenburg, Germany

Now
41 °F

Passing clouds.


Feels Like: 41 °F
Forecast: 42 / 64 °F
Wind: 2 mph from East

Location: Holzdorf

Current Time: Apr 30, 2016 at 12:04:17 AM

Latest Report: Apr 29, 2016 at 10:20 PM


Visibility: N/A

Pressure: 30.07 "Hg

Humidity: 70%

Dew Point: 32 °F

Location of LuckenwaldeLocation

Historic Weather in Luckenwalde — Graph

°F

Luckenwalde Temperature Yesterday

Maximum temperature yesterday: 57 °F (at 2:20 PM)
Minimum temperature yesterday: 30 °F (at 1:20 AM)
Average temperature yesterday: 44 °F

High & Low Weather Summary for the Past Weeks

 TemperatureHumidityPressure
High61 °F (Apr 21, 4:20 PM)100% (Apr 14, 11:20 PM)30.39 "Hg (Apr 14, 11:20 PM)
Low28 °F (Apr 21, 4:20 AM)29% (Apr 22, 5:20 PM)29.47 "Hg (Apr 26, 5:20 AM)
Average44 °F72%29.90 "Hg
* Reported Apr 14 10:20 PM — Apr 29 10:20 PM, Luckenwalde, Weather by CustomWeather, © 2016

Note: Actual official high and low records may vary slightly from our data, if they occured in-between our weather recording intervals... More about our weather records

Advertising

Luckenwalde Weather History for the Previous 24 Hours

Scroll right to see more
 ConditionsComfort  
Time TempWeatherWind HumidityBarometerVisibility
10:20 PM
Fri, Apr 29
41 °FPassing clouds.2 mph70%30.07 "HgN/A
9:20 PM43 °FScattered clouds.2 mph66%30.07 "HgN/A
8:20 PM50 °FScattered clouds.3 mph54%30.07 "HgN/A
7:20 PM55 °FScattered clouds.5 mph41%30.07 "HgN/A
6:20 PM57 °FScattered clouds.7 mph33%30.07 "HgN/A
5:20 PM57 °FScattered clouds.9 mph33%30.07 "HgN/A
4:20 PM57 °FScattered clouds.13 mph36%30.07 "HgN/A
3:20 PM57 °FPartly sunny.10 mph31%30.07 "HgN/A
2:20 PM57 °FPartly sunny.10 mph33%30.09 "HgN/A
1:20 PM55 °FScattered clouds.10 mph33%30.09 "HgN/A
12:20 PM54 °FScattered clouds.14 mph35%30.09 "HgN/A
12:00 PM54 °FScattered clouds.9 mph35%30.09 "HgN/A
11:20 AM52 °FScattered clouds.13 mph47%30.09 "HgN/A
10:20 AM52 °FScattered clouds.8 mph58%30.09 "HgN/A
9:20 AM46 °FScattered clouds.8 mph66%30.09 "HgN/A
8:20 AM41 °FPartly sunny.9 mph76%30.09 "HgN/A
7:20 AM34 °FScattered clouds.6 mph93%30.09 "HgN/A
6:20 AM30 °FPassing clouds.5 mph100%30.07 "HgN/A
5:20 AM30 °FFog.2 mph93%30.07 "HgN/A
4:20 AM30 °FChilly.2 mph100%30.07 "HgN/A
3:20 AM30 °FChilly.5 mph100%30.07 "HgN/A
2:20 AM30 °FChilly.1 mph93%30.07 "HgN/A
1:20 AM30 °FChilly.2 mph100%30.07 "HgN/A
12:20 AM32 °FChilly.2 mph93%30.04 "HgN/A
12:00 AM32 °FPassing clouds.2 mph93%30.04 "HgN/A
Weather by CustomWeather, © 2016

See weather overviewHow to use our weather pages